COSMOS 2545 (760)

Last updated on Sun Nov 02 2025 00:03:26 GMT+0000 (Coordinated Universal Time)

1 45358U 20018A 25305.16424691 -.00000004 00000+0 00000+0 0 9997 2 45358 64.4929 320.4289 0012381 244.3344 115.5890 2.13102457 43807
UTC large
Height (km)
Speed (km/s)
/
Latitude / Longitude
Inclination (degrees)
Orbital Period (minutes)
Azimuth
Elevation
Range (km)
Doppler Factor

Next 0 passes for location: London (51.5072 / 0.1276)

Sorry there are no passes over London.